This demonstration page uses our WeatherBlox Daily Observations layout. Learn more.

Hourly Observations for June 26, 2019

Temp ( °F °C ) Dew Point ( °F °C ) Humidity (%) Winds ( mph kmh ) Pressure ( in mb ) Visibility ( mi km ) Precip ( " mm )
12:15 am 00:15 Clear 64 18 62 16.8 93 93 ENE 6 9 29.91 1013 10 16.09344 0 0
12:35 am 00:35 Clear 65 18.1 62 16.8 92 92 E 6 9 29.91 1013 10 16.09344 0 0
12:55 am 00:55 Clear 64 18 62 16.9 93 93 ESE 10 17 29.91 1013 10 16.09344 0 0
1:15 am 01:15 Clear 64 17.8 63 17 95 95 ESE 9 15 29.91 1013 10 16.09344 0 0
1:35 am 01:35 Clear 64 18 62 16.7 92 92 SE 9 15 29.91 1013 10 16.09344 0 0
1:55 am 01:55 Clear 64 17.8 62 16.6 93 93 SE 8 13 29.91 1013 10 16.09344 0 0
2:15 am 02:15 Clear 65 18.5 62 16.7 89 89 SSE 10 17 29.91 1013 10 16.09344 0 0
2:35 am 02:35 Clear 66 19 63 17.3 90 90 S 12 19 29.91 1013 10 16.09344 0 0
2:55 am 02:55 Clear 66 19.1 64 17.7 92 92 S 14 22 29.85 1011 10 16.09344 0 0
3:15 am 03:15 Clear 67 19.2 64 18 93 93 S 15 24 29.85 1011 10 16.09344 0 0
3:35 am 03:35 Clear 68 19.8 65 18.2 91 91 S 18 30 29.85 1011 10 16.09344 0 0
3:55 am 03:55 Clear 68 20 65 18.3 90 90 S 18 30 29.88 1012 10 16.09344 0 0
4:15 am 04:15 Clear 68 20 65 18.5 91 91 S 15 24 29.88 1012 10 16.09344 0 0
4:35 am 04:35 Clear 68 20 65 18.3 90 90 S 17 28 29.88 1012 10 16.09344 0 0
4:55 am 04:55 Clear 67 19.5 65 18.1 92 92 S 13 20 29.88 1012 10 16.09344 0 0
5:15 am 05:15 Clear 67 19.3 65 18.2 93 93 S 12 19 29.88 1012 10 16.09344 0 0
5:35 am 05:35 Clear 66 18.8 65 18.1 96 96 S 9 15 29.91 1013 10 16.09344 0 0
5:55 am 05:55 Clear 66 18.7 65 18.1 96 96 SE 10 17 29.91 1013 10 16.09344 0 0
6:15 am 06:15 Partly Cloudy 65 18.6 64 18 96 96 SE 8 13 29.94 1014 10 16.09344 0 0
6:35 am 06:35 Sunny 65 18.4 64 18 98 98 SE 8 13 29.94 1014 10 16.09344 0 0
6:55 am 06:55 Sunny 65 18.2 64 17.8 98 98 E 10 17 29.97 1015 10 16.09344 0 0
7:15 am 07:15 Partly Cloudy 64 17.8 64 17.6 99 99 E 9 15 29.97 1015 10 16.09344 0 0
7:35 am 07:35 Partly Cloudy 64 17.9 64 17.6 98 98 ESE 10 17 29.97 1015 10 16.09344 0 0
7:55 am 07:55 Mostly Cloudy 64 17.5 62 16.9 96 96 ESE 14 22 30 1016 10 16.09344 0 0
8:15 am 08:15 Mostly Cloudy 66 19 63 17.2 89 89 ESE 20 31 30 1016 10 16.09344 0 0
8:35 am 08:35 Partly Cloudy 68 20 63 17.3 85 85 ESE 21 33 30 1016 10 16.09344 0 0
8:55 am 08:55 Partly Cloudy 69 20.3 62 16.8 80 80 ESE 23 37 29.97 1015 10 16.09344 0 0
9:15 am 09:15 Partly Cloudy 70 21.3 62 16.8 76 76 SE 25 41 29.97 1015 10 16.09344 0 0
9:35 am 09:35 Partly Cloudy 72 22 62 16.7 72 72 SE 28 44 29.97 1015 10 16.09344 0 0
9:55 am 09:55 Sunny 73 22.9 62 16.4 67 67 SE 22 35 29.97 1015 10 16.09344 0 0
10:15 am 10:15 Sunny 74 23.1 60 15.5 62 62 SE 30 48 29.97 1015 10 16.09344 0 0
10:35 am 10:35 Sunny 75 23.7 62 16.4 64 64 SE 26 43 29.94 1014 10 16.09344 0 0
10:55 am 10:55 Sunny 76 24.2 61 16.3 61 61 SE 25 41 29.94 1014 10 16.09344 0 0
11:15 am 11:15 Sunny 76 24.5 61 16.3 60 60 SE 24 39 29.94 1014 10 16.09344 0 0
11:35 am 11:35 Sunny 77 25.1 62 16.7 60 60 SE 24 39 29.94 1014 10 16.09344 0 0
11:55 am 11:55 Sunny 77 25.1 61 16.3 58 58 SE 24 39 29.94 1014 10 16.09344 0 0
12:15 pm 12:15 Sunny 78 25.6 62 16.9 59 59 SE 25 41 29.91 1013 10 16.09344 0 0
12:35 pm 12:35 Sunny 78 25.8 62 16.9 58 58 SE 25 41 29.91 1013 10 16.09344 0 0
12:55 pm 12:55 Sunny 79 26 63 17.1 58 58 SE 22 35 29.91 1013 10 16.09344 0 0
1:15 pm 13:15 Sunny 80 26.6 62 16.9 55 55 SE 22 35 29.91 1013 10 16.09344 0 0
1:35 pm 13:35 Sunny 80 26.5 63 17.3 57 57 SE 18 30 29.88 1012 10 16.09344 0 0
1:55 pm 13:55 Sunny 81 27.2 64 17.5 55 55 SE 23 37 29.85 1011 10 16.09344 0 0
2:15 pm 14:15 Sunny 81 27.3 65 18.4 58 58 SE 24 39 29.85 1011 10 16.09344 0 0
2:35 pm 14:35 Sunny 80 26.7 64 18 59 59 SSE 18 30 29.88 1012 10 16.09344 0 0
2:55 pm 14:55 Sunny 81 27.4 65 18.3 58 58 SSE 20 31 29.85 1011 10 16.09344 0 0
3:15 pm 15:15 Sunny 80 26.8 64 17.7 57 57 SSE 23 37 29.85 1011 10 16.09344 0 0
3:35 pm 15:35 Sunny 82 27.9 65 18.6 57 57 SSE 18 30 29.85 1011 10 16.09344 0 0
3:55 pm 15:55 Sunny 82 28 66 18.9 58 58 SSE 17 28 29.85 1011 10 16.09344 0 0
4:15 pm 16:15 Sunny 84 28.7 67 19.2 56 56 S 16 26 29.85 1011 10 16.09344 0 0
4:35 pm 16:35 Sunny 84 28.7 67 19.3 57 57 S 20 31 29.85 1011 10 16.09344 0 0
4:55 pm 16:55 Sunny 83 28.5 68 19.8 59 59 S 17 28 29.83 1010 10 16.09344 0 0
5:15 pm 17:15 Sunny 82 27.8 68 20 63 63 S 17 28 29.83 1010 10 16.09344 0 0
5:35 pm 17:35 Sunny 83 28.1 68 20.1 62 62 SSE 16 26 29.83 1010 10 16.09344 0 0
5:55 pm 17:55 Sunny 83 28.1 69 20.6 64 64 SSE 15 24 29.83 1010 10 16.09344 0 0
6:15 pm 18:15 Sunny 83 28.1 69 20.7 64 64 SE 16 26 29.83 1010 10 16.09344 0 0
6:35 pm 18:35 Sunny 83 28.2 70 20.9 65 65 SE 15 24 29.8 1009 10 16.09344 0 0
6:55 pm 18:55 Sunny 83 28.2 70 21 65 65 SE 17 28 29.8 1009 10 16.09344 0 0
7:15 pm 19:15 Sunny 83 28.2 70 21 65 65 SE 16 26 29.8 1009 10 16.09344 0 0
7:35 pm 19:35 Sunny 82 28 70 21.2 67 67 SE 14 22 29.8 1009 10 16.09344 0 0
7:55 pm 19:55 Sunny 82 27.5 71 21.4 69 69 SE 14 22 29.8 1009 10 16.09344 0 0
8:15 pm 20:15 Sunny 81 27.2 70 21.3 70 70 SSE 10 17 29.8 1009 10 16.09344 0 0
8:35 pm 20:35 Sunny 80 26.5 71 21.5 74 74 SE 10 17 29.83 1010 10 16.09344 0 0
8:55 pm 20:55 Sunny 78 25.7 71 21.7 79 79 SE 10 17 29.83 1010 10 16.09344 0 0
9:15 pm 21:15 Clear 77 25.1 71 21.6 81 81 SE 8 13 29.83 1010 10 16.09344 0 0
9:35 pm 21:35 Clear 76 24.5 71 21.4 83 83 SE 9 15 29.85 1011 10 16.09344 0 0
9:55 pm 21:55 Clear 76 24.6 70 21 80 80 SE 9 15 29.85 1011 10 16.09344 0 0
10:15 pm 22:15 Clear 76 24.5 69 20.5 78 78 SE 9 15 29.85 1011 10 16.09344 0 0
10:35 pm 22:35 Clear 75 23.7 68 20.1 80 80 SE 8 13 29.88 1012 10 16.09344 0 0
10:55 pm 22:55 Clear 75 23.9 67 19.5 76 76 SSE 9 15 29.88 1012 10 16.09344 0 0
11:15 pm 23:15 Clear 76 24.5 67 19.5 74 74 SSE 9 15 29.88 1012 10 16.09344 0 0
11:35 pm 23:35 Clear 76 24.6 67 19.5 73 73 SSE 10 17 29.88 1012 10 16.09344 0 0
11:55 pm 23:55 Clear 76 24.6 67 19.5 73 73 SSE 10 17 29.88 1012 10 16.09344 0 0

Powered by AerisWeather